Regional Weather Roundup
Issued by NWS Sterling, VA

Home | Current Version | Previous Version | Text Only | Print | Product List | Glossary Off
Versions: 1 2 3 4 5 6 7 8 9 10 11 12 13 14 15 16 17 18 19 20 21 22 23 24 25 26 27

000
ASUS41 KLWX 180910
RWRLWX

REGIONAL WEATHER ROUNDUP
NATIONAL WEATHER SERVICE BALTIMORE MD/WASHINGTON DC
400 AM EST WED JAN 18 2017

Note: "FAIR" indicates few or no clouds below 12,000 feet
with no significant weather and/or obstructions to visibility.
 TC=TEMPERATURE CELSIUS

 * =Non NWS site. Station does not report precipitation (e.g. rain,
    snow, etc.), thunder, or fog.

DCZ001-MDZ009-015-VAZ040>042-051-053>054-181000-
WASHINGTON METRO

CITY           SKY/WX    TMP DP  RH WIND       PRES   REMARKS
WASHINGTON NAT CLOUDY    47  46  97 NE6       29.89R FOG
DULLES         FOG       46  45  96 N7        29.88S VSB 3/4
ANDREWS AFB    CLOUDY    46  46  99 CALM      29.86F FOG
FT BELVOIR     CLOUDY    45  44  98 CALM      29.87S
QUANTICO       FOG       46  46 100 NE13      29.87F VSB 1/2
LEESBURG*      FOG       45  45 100 N3        29.90S VSB 1
GAITHERSBURG*  CLOUDY    48  45  87 NW3       29.92S VSB 1/2

$$

MDZ006>007-011-014-181000-
BALTIMORE METRO

CITY           SKY/WX    TMP DP  RH WIND       PRES   REMARKS
BWI AIRPORT    FOG       45  45 100 CALM      29.88S VSB 1/2
MD SCIENCE CTR   N/A     46  44  93 MISG      29.89F
ANNAPOLIS      FOG       44  41  89 NW6       29.88R VSB 1
FORT MEADE*    CLOUDY    45  43  93 CALM      29.91R

$$

MDZ012-015-019>023-181000-
MARYLAND EASTERN SHORE

CITY           SKY/WX    TMP DP  RH WIND       PRES   REMARKS
OCEAN CITY     FOG       50  50 100 CALM      29.86F VSB 3/4
SALISBURY      CLOUDY    51  50  96 SW6       29.86F
BAY BRIDGE AP* FOG       39  39 100 N9        29.88S VSB 3/4
CAMBRIDGE*     CLOUDY    45  45 100 CALM      29.87S VSB 1
EASTON*        FOG       49  48  95 CALM      29.90F VSB 1

$$

MDZ017>025-181000-
SOUTHERN MARYLAND

CITY           SKY/WX    TMP DP  RH WIND       PRES   REMARKS
PATUXENT RIVER CLOUDY    55  54  96 N8        29.86R
ST INIGOES     CLOUDY    54  52  93 SW7       29.85F
LEONARDTOWN*   CLOUDY    54  52  94 CALM      29.88S

$$

MDZ003>005-181000-
NORTH CENTRAL MARYLAND

CITY           SKY/WX    TMP DP  RH WIND       PRES   REMARKS
FREDERICK*     FOG       41  41 100 CALM      29.93S VSB 1
HAGERSTOWN APT CLOUDY    40  38  93 W3        29.89S FOG
WESTMINSTER*   FOG       41  41 100 CALM      29.87F VSB 3/4

$$

MDZ501>502-181000-
WESTERN MARYLAND

CITY           SKY/WX    TMP DP  RH WIND       PRES   REMARKS
OAKLAND*         N/A     39  39 100 W15G26    29.90S FOG
CUMBERLAND*    CLOUDY    52  48  87 W12G20    29.94R

$$

VAZ025>031-181000-
SHENANDOAH VALLEY

CITY           SKY/WX    TMP DP  RH WIND       PRES   REMARKS
WINCHESTER*    FOG       37  37 100 CALM      29.89S VSB 1
FRONT ROYAL*   CLOUDY    39  39 100 CALM      29.88S VSB 1/2
LURAY*         CLOUDY    43  43 100 NE7       29.86R FOG
NEW MARKET*    PTSUNNY   46  44  92 N5        29.85R
STAUNTON*      PTCLDY    47  44  91 S5        29.88S
WAYNESBORO*    MOSUNNY   55  45  67 SW7       29.87F

$$

WVZ021-048>050-054>055-181000-
EASTERN WEST VIRGINIA PANHANDLE

CITY           SKY/WX    TMP DP  RH WIND       PRES   REMARKS
MARTINSBURG    FOG       40  40 100 CALM      29.89F VSB 1/4
PETERSBURG*    CLOUDY    58  44  60 SW16G33   29.88R

$$

VAZ036>039-050-181000-
CENTRAL FOOTHILLS

CITY           SKY/WX    TMP DP  RH WIND       PRES   REMARKS
CHARLOTTESVILL PTCLDY    54  50  86 CALM      29.84F
CULPEPER*      FOG       44  44 100 CALM      29.86F VSB 1/2
ORANGE*          N/A     54  54 100 CALM      29.87F
GORDONSVILLE*  PTSUNNY   53  53 100 S7        29.84F FOG
WARRENTON*     FOG       50  47  90 CALM      29.86S VSB 1

$$

VAZ055>057-181000-
NORTH AND CENTRAL PIEDMONT

CITY           SKY/WX    TMP DP  RH WIND       PRES   REMARKS
FREDERICKSBRG* CLOUDY    56  56 100 SW3       29.85F
STAFFORD*      CLOUDY    54  54 100 CALM      29.89S

$$

NCZ024-NYZ072-PAZ021-071-VAZ022-071-181000-
OTHER REGIONAL OBSERVATIONS

CITY           SKY/WX    TMP DP  RH WIND       PRES   REMARKS
NEW YORK CITY  CLOUDY    39  38  96 NE5       29.93F FOG
PHILADELPHIA   LGT RAIN  43  41  93 N5        29.89F
PITTSBURGH     CLOUDY    46  43  89 W5        29.93R
ROANOKE        CLOUDY    58  47  66 NW8       29.93S
RICHMOND       CLOUDY    54  54 100 S5        29.87F FOG
RALEIGH        CLOUDY    62  56  80 SW9       29.94F

$$

ANZ530>537-181000-
MARINE OBSERVATIONS

STATION/POSITION TIME  TEMP    WIND        PRES
                       AIR SEA DIR/SP/G
                 (UTC) (F)     (DEG/KT/KT) (MB)
THOMAS PT LIGHT  0900   44 39  350/  8/  8   N/A
BALT KEY BRIDGE  0842   42     320/  4/  4 1012.3R
COVE POINT       0842   40     350/ 12/ 15 1012.0R
LEWISETTA        0842   59 45  260/ 11/ 13 1010.7F
SOLOMONS ISLAND  0842   54 41  360/  5/  5   N/A
PINEY POINT      0848          290/  5/  7   N/A

$$





USA.gov is the U.S. government's official web portal to all federal, state and local government web resources and services.